[[{"header":{"parameterUnit":"m.s-1","parameterCategory":1,"la1":30.2991,"la2":30.254,"lo1":-89.0895,"lo2":-89.0444,"dy":0.0017,"dx":0.0017,"nx":28,"ny":28,"refTime":"2023-08-20T21:00:00:Z","depth":0,"parameterNumber":2,"parameterNumberName":"U-component_of_WINDS"},"data":[0,0,0,0,0,0,0,0,0,0,0,0,0,0,0,0,0,0,0,0,0,0,0,0,0,0,0,0,0,0,0,0,0,0,0,0,0,0,0,0,0,0,0,0,0,0,0,0,0,0,0,0,0,0,0,0,0,0,-1.9603,-1.9604,0,-1.9631,-1.9631,-1.9632,-1.9584,-1.9583,-1.9581,-1.958,-1.9608,-1.9611,-1.9613,0,0,0,0,0,0,0,0,0,0,0,0,0,-1.9509,-1.9511,-1.9603,-1.9604,-1.9604,-1.9631,-1.9631,-1.9632,-1.9585,-1.9583,-1.9581,-1.9579,-1.9608,-1.961,-1.9613,0,0,0,0,0,0,0,0,0,0,0,0,0,-1.9545,-1.9512,-1.9603,-1.9584,-1.9582,-1.9631,-1.9631,-1.9632,-1.9585,-1.9583,-1.958,-1.9578,-1.9607,-1.961,-1.9613,-1.9683,0,0,-1.9624,-1.9625,0,0,0,0,0,0,0,0,-1.9543,-1.9548,-1.9586,-1.9585,-1.9584,-1.9602,-1.9609,-1.9649,-1.9586,-1.9584,-1.958,-1.9577,-1.9608,-1.9611,-1.9622,-1.9684,-1.9685,-1.9624,-1.9626,-1.9628,-1.9629,0,0,0,0,0,0,0,-1.954,-1.9547,-1.9614,-1.9587,-1.9585,-1.9574,-1.9576,-1.9616,-1.9609,-1.9584,-1.9581,-1.9585,-1.9607,-1.9619,-1.9622,-1.9686,-1.9624,-1.9627,-1.9629,-1.963,-1.9805,-1.9807,0,0,0,0,0,0,-1.954,-1.9545,-1.9613,-1.9615,-1.9557,-1.9577,-1.958,-1.9598,-1.9609,-1.9608,-1.9587,-1.9582,-1.9614,-1.9618,-1.9623,-1.9704,-1.9628,-1.9631,-1.9633,-1.9802,-1.9805,-1.9808,0,0,0,0,0,0,-1.9538,-1.9547,-1.9612,-1.9579,-1.9587,-1.9581,-1.9603,-1.96,-1.9612,-1.9611,-1.9609,-1.96,-1.9612,-1.9618,-1.9668,-1.9704,-1.9632,-1.9635,-1.9799,-1.9803,-1.9807,-1.9867,0,0,0,0,0,0,-1.9536,-1.9546,-1.9573,-1.958,-1.9589,-1.9657,-1.9605,-1.9603,-1.9618,-1.9612,-1.9623,-1.9622,-1.9611,-1.9663,-1.9671,-1.9708,-1.9638,-1.9796,-1.9801,-1.9806,-1.9862,-1.9872,-1.9882,0,0,0,0,0,-1.9533,-1.9589,-1.9574,-1.9583,-1.9621,-1.9659,-1.9664,-1.965,-1.9621,-1.9647,-1.9646,-1.9622,-1.9699,-1.9669,-1.9677,-1.9715,-1.9794,-1.98,-1.9805,-1.9857,-1.987,-1.9881,0,0,0,0,0,0,-1.9586,-1.9589,-1.9573,-1.9633,-1.9646,-1.9651,-1.9684,-1.9664,-1.9686,-1.968,-1.9662,-1.9664,-1.9718,-1.9721,-1.9687,-1.9782,-1.9741,-1.9749,-1.9778,-1.979,-1.98,-1.9798,-1.9641,0,0,0,0,0,-1.9605,-1.9635,-1.9636,-1.9689,-1.9697,-1.9689,-1.9705,-1.9693,-1.9706,-1.9711,-1.9714,-1.9727,-1.9754,-1.9773,-1.9798,-1.9862,-1.9863,-1.9893,-1.9902,-1.9911,-1.9918,-1.9951,-1.9964,-1.9828,-1.9827,-1.9827,0,0,-1.9644,-1.9649,-1.967,-1.97,-1.9709,-1.974,-1.9694,-1.973,-1.9753,-1.9716,-1.9763,-1.9766,-1.978,-1.9837,-1.9862,-1.9842,-1.9956,-1.9918,-1.9925,-1.9927,-1.9959,-1.9972,-1.9983,-1.9832,-1.9831,-1.983,0,0,-1.9731,-1.9739,-1.9783,-1.9792,-1.9806,-1.98,-1.9811,-1.9819,-1.9819,-1.9866,-1.9839,-1.9866,-1.9914,-1.9924,-1.9936,-2.0027,-2.0005,-2.0036,-2.0087,-2.0121,-2.0131,-2.0141,-2.0173,-2.0184,-2.0042,-2.0043,-2.0043,0,-1.9778,-1.9824,-1.9808,-1.9846,-1.986,-1.9828,-1.9873,-1.9883,-1.9904,-1.9914,-1.9891,-1.9949,-1.9956,-2.0015,-2.0037,-2.0048,-2.0059,-2.0034,-2.0131,-2.014,-2.0149,-2.0179,-2.0191,-2.0046,-2.0046,-2.0045,-2.0045,0,-1.9881,-1.9914,-1.9948,-1.9969,-1.9987,-2.0028,-2.0018,-2.0038,-2.0024,-2.0022,-2.0069,-2.0076,-2.0102,-2.0115,-2.0103,-2.0173,-2.0159,-2.0134,-2.0092,-2.0166,-2.0194,-2.0205,-2.0051,-2.005,-2.0049,-2.0048,0,0,-2.0003,-2.0014,-2.0027,-2.0035,-2.0048,-2.0073,-2.0112,-2.0137,-2.0154,-2.017,-2.0202,-2.0243,-2.0219,-2.0233,-2.0221,-2.025,-2.0321,-2.0221,-2.0221,-2.0239,-2.0398,-2.0416,-2.043,-2.0306,-2.0309,-2.031,-2.0396,0,-2.0089,-2.0157,-2.0143,-2.0209,-2.0239,-2.0209,-2.0243,-2.0255,-2.0253,-2.0278,-2.0276,-2.0305,-2.0272,-2.028,-2.0307,-2.0306,-2.0352,-2.03,-2.0336,-2.0338,-2.0333,-2.0445,-2.0465,-2.0546,-2.0407,-2.0409,-2.0411,0,-2.0199,-2.0218,-2.0287,-2.0294,-2.0306,-2.0337,-2.0358,-2.0383,-2.0395,-2.0392,-2.0406,-2.0389,-2.0428,-2.0386,-2.0439,-2.0404,-2.0418,-2.042,-2.0422,-2.0425,-2.0378,-2.045,-2.0571,-2.0583,-2.0428,-2.0426,-2.0425,0,-2.028,-2.0323,-2.037,-2.0379,-2.0388,-2.041,-2.0415,-2.0425,-2.0441,-2.0459,-2.0469,-2.0492,-2.0505,-2.0524,-2.0513,-2.0483,-2.0568,-2.0525,-2.0566,-2.0566,-2.0585,-2.0584,-2.071,-2.0595,-2.0594,-2.0594,-2.0594,0,-2.0378,-2.0421,-2.0407,-2.0435,-2.0483,-2.0467,-2.0514,-2.0516,-2.0524,-2.0553,-2.0528,-2.0556,-2.054,-2.0566,-2.0558,-2.0603,-2.0609,-2.0607,-2.0604,-2.0609,-2.0609,-2.0618,-2.0612,-2.0597,-2.0597,-2.0596,-2.0596,0,-2.0477,-2.0469,-2.0518,-2.0522,-2.0524,-2.0559,-2.0563,-2.059,-2.0586,-2.0622,-2.063,-2.0624,-2.0653,-2.0644,-2.0676,-2.0671,-2.0728,-2.0718,-2.0724,-2.0721,-2.0762,-2.0758,-2.0898,-2.0915,-2.0789,-2.079,-2.0791,0,-2.054,-2.0572,-2.058,-2.0597,-2.0604,-2.0632,-2.0647,-2.0632,-2.065,-2.0666,-2.069,-2.0717,-2.0738,-2.0786,-2.0785,-2.0809,-2.0799,-2.0847,-2.0803,-2.0807,-2.08,-2.0798,-2.0801,-2.0855,-2.0857,-2.0858,-2.0859,0,-2.0652,-2.0646,-2.0669,-2.0691,-2.071,-2.0727,-2.0742,-2.0757,-2.0743,-2.0764,-2.0793,-2.0809,-2.0841,-2.0868,-2.089,-2.0895,-2.0875,-2.0873,-2.0883,-2.0888,-2.089,-2.0889,-2.0747,-2.0869,-2.0868,-2.0868,-2.0867,-2.0867,-2.0734,-2.0762,-2.0771,-2.0798,-2.0807,-2.0821,-2.0846,-2.0845,-2.0869,-2.0894,-2.0884,-2.0917,-2.0928,-2.0955,-2.0963,-2.0989,-2.0971,-2.0987,-2.099,-2.0994,-2.0999,-2.0886,-2.0993,-2.0993,-2.0992,-2.0992,-2.0992,0,-2.0845,-2.0849,-2.0874,-2.0895,-2.0916,-2.0894,-2.0909,-2.0928,-2.0958,-2.0969,-2.099,-2.1024,-2.1049,-2.105,-2.1074,-2.1095,-2.1086,-2.1102,-2.11,-2.1102,-2.1014,-2.1003,-2.1109,-2.1109,-2.1109,-2.1108,-2.1108,-2.1108,-2.0905,-2.095,-2.0945,-2.0994,-2.0998,-2.1031,-2.1041,-2.1053,-2.1062,-2.1101,-2.1122,-2.1122,-2.1129,-2.1153,-2.1176,-2.1176,-2.1186,-2.1205,-2.1201,-2.1119,-2.1108,-2.1097,-2.1086,-2.1207,-2.1207,-2.1286,-2.1287,-2.1287]},{"header":{"parameterUnit":"m.s-1","parameterCategory":1,"la1":30.2991,"la2":30.254,"lo1":-89.0895,"lo2":-89.0444,"dy":0.0017,"dx":0.0017,"nx":28,"ny":28,"refTime":"2023-08-20T21:00:00:Z","depth":0,"parameterNumber":3,"parameterNumberName":"V-component_of_WINDS"},"data":[0,0,0,0,0,0,0,0,0,0,0,0,0,0,0,0,0,0,0,0,0,0,0,0,0,0,0,0,0,0,0,0,0,0,0,0,0,0,0,0,0,0,0,0,0,0,0,0,0,0,0,0,0,0,0,0,0,0,0.9665,0.9665,0,0.9657,0.9656,0.9656,0.9632,0.9632,0.9631,0.9631,0.9622,0.9622,0.9623,0,0,0,0,0,0,0,0,0,0,0,0,0,0.9661,0.9661,0.9665,0.9665,0.9665,0.9657,0.9656,0.9656,0.9632,0.9632,0.9631,0.9631,0.9622,0.9622,0.9623,0,0,0,0,0,0,0,0,0,0,0,0,0,0.9659,0.9661,0.9665,0.9652,0.9651,0.9657,0.9656,0.9656,0.9633,0.9632,0.9631,0.963,0.9622,0.9622,0.9623,0.9641,0,0,0.9624,0.9624,0,0,0,0,0,0,0,0,0.9659,0.9659,0.9654,0.9653,0.9651,0.9645,0.9652,0.9651,0.9633,0.9639,0.9631,0.963,0.963,0.963,0.963,0.964,0.964,0.9624,0.9624,0.9624,0.9624,0,0,0,0,0,0,0,0.9659,0.9659,0.9662,0.9654,0.9652,0.9647,0.9645,0.9652,0.9639,0.9639,0.9637,0.9636,0.9629,0.963,0.963,0.964,0.9624,0.9624,0.9624,0.9625,0.9665,0.9666,0,0,0,0,0,0,0.9661,0.9659,0.9662,0.9661,0.9653,0.9647,0.9646,0.9648,0.9639,0.9637,0.9637,0.9635,0.9629,0.9629,0.9629,0.965,0.9624,0.9625,0.9625,0.9664,0.9665,0.9666,0,0,0,0,0,0,0.9661,0.9661,0.9662,0.966,0.9659,0.9648,0.965,0.9648,0.9648,0.9638,0.9636,0.9639,0.9629,0.9629,0.9638,0.9649,0.9625,0.9625,0.9663,0.9664,0.9666,0.9691,0,0,0,0,0,0,0.9661,0.9661,0.9668,0.966,0.966,0.9671,0.9651,0.9648,0.9649,0.9646,0.964,0.9638,0.9628,0.9638,0.9639,0.9649,0.9625,0.9662,0.9664,0.9665,0.9689,0.9693,0.9696,0,0,0,0,0,0.9661,0.9675,0.9668,0.9669,0.9668,0.9672,0.9671,0.966,0.965,0.9656,0.965,0.9638,0.9648,0.9639,0.964,0.965,0.9661,0.9663,0.9665,0.9687,0.9692,0.9696,0,0,0,0,0,0,0.9685,0.9674,0.9666,0.9679,0.9676,0.9668,0.9675,0.9666,0.9666,0.9664,0.965,0.9649,0.966,0.9656,0.9646,0.9668,0.9653,0.9655,0.9669,0.9674,0.9677,0.9677,0.9626,0,0,0,0,0,0.9691,0.9695,0.9686,0.9698,0.9697,0.9687,0.9688,0.968,0.9677,0.9676,0.967,0.9667,0.967,0.9672,0.9674,0.9689,0.9687,0.9697,0.97,0.9703,0.9705,0.9713,0.9717,0.9672,0.9672,0.9672,0,0,0.9705,0.97,0.9703,0.9703,0.97,0.9705,0.9686,0.9692,0.9695,0.9676,0.9685,0.9681,0.9677,0.9689,0.9695,0.9687,0.9717,0.9706,0.9708,0.9708,0.9715,0.9719,0.9723,0.9673,0.9673,0.9673,0,0,0.9732,0.9729,0.9739,0.9736,0.9732,0.9726,0.9728,0.9721,0.9718,0.9726,0.9712,0.9716,0.9721,0.9719,0.9719,0.9747,0.9735,0.9748,0.9766,0.9774,0.9777,0.978,0.979,0.9793,0.975,0.975,0.975,0,0.975,0.9756,0.9745,0.9751,0.9752,0.9736,0.9745,0.9744,0.9741,0.9741,0.9733,0.9739,0.9735,0.9747,0.9754,0.9754,0.9756,0.9748,0.9778,0.9781,0.9783,0.9792,0.9796,0.9751,0.9751,0.9751,0.9751,0,0.9778,0.9783,0.9791,0.9789,0.979,0.9798,0.9788,0.9791,0.9783,0.9777,0.9786,0.9781,0.9782,0.9784,0.9777,0.9795,0.979,0.978,0.9764,0.9789,0.9797,0.9801,0.9753,0.9753,0.9752,0.9752,0,0,0.9818,0.9811,0.9814,0.9812,0.9808,0.9811,0.9819,0.982,0.9822,0.9821,0.9827,0.9832,0.9823,0.9822,0.9814,0.9821,0.9844,0.981,0.981,0.9816,0.9863,0.9871,0.9875,0.9837,0.9837,0.9838,0.9864,0,0.9844,0.9856,0.9847,0.9861,0.9865,0.9851,0.9857,0.9855,0.985,0.9854,0.9848,0.9852,0.9839,0.9839,0.9845,0.9839,0.9853,0.9838,0.9842,0.9842,0.9842,0.9879,0.9886,0.9911,0.9867,0.9867,0.9868,0,0.9875,0.9875,0.989,0.9884,0.9886,0.9892,0.9892,0.9896,0.9893,0.9889,0.9889,0.988,0.9887,0.9873,0.9883,0.9873,0.9874,0.9872,0.9873,0.9872,0.9856,0.9878,0.9918,0.9922,0.9873,0.9872,0.9872,0,0.9902,0.9907,0.9916,0.9915,0.991,0.9914,0.9912,0.9909,0.991,0.9911,0.9911,0.9913,0.9913,0.9915,0.9906,0.9896,0.9917,0.9902,0.9914,0.9914,0.9918,0.9917,0.9958,0.992,0.992,0.992,0.992,0,0.9931,0.994,0.9928,0.9934,0.9944,0.9933,0.9944,0.994,0.9938,0.9943,0.9931,0.9935,0.9924,0.9928,0.9921,0.993,0.9931,0.9927,0.9925,0.9928,0.9928,0.9928,0.9926,0.9921,0.9921,0.9921,0.9921,0,0.9963,0.9955,0.9964,0.9958,0.9957,0.9965,0.996,0.9965,0.9959,0.9966,0.9967,0.9958,0.9962,0.9954,0.9956,0.9952,0.9965,0.9961,0.9966,0.9964,0.9976,0.9975,1.0016,1.0021,0.9982,0.9982,0.9982,0,0.9981,0.9988,0.9983,0.9985,0.9984,0.9988,0.9989,0.9979,0.9981,0.998,0.9985,0.9988,0.999,0.9996,0.9991,0.9993,0.9988,1.0002,0.9988,0.999,0.9987,0.9987,0.9987,1.0005,1.0006,1.0006,1.0006,0,1.0014,1.001,1.0013,1.0014,1.0016,1.0017,1.0017,1.0019,1.0009,1.0012,1.0016,1.0017,1.002,1.0023,1.0024,1.0022,1.0012,1.0011,1.0014,1.0016,1.0018,1.0017,0.9973,1.001,1.0009,1.0009,1.0009,1.0009,1.0039,1.0045,1.0042,1.0045,1.0044,1.0045,1.0049,1.0045,1.0048,1.0049,1.0044,1.0049,1.0047,1.0047,1.0046,1.005,1.0044,1.0048,1.0048,1.0049,1.0051,1.0019,1.005,1.005,1.005,1.005,1.005,0,1.0071,1.0069,1.0072,1.0072,1.0075,1.0067,1.0066,1.0069,1.0074,1.0073,1.0075,1.008,1.0083,1.0078,1.008,1.0084,1.008,1.0085,1.0084,1.0084,1.0057,1.0054,1.0088,1.0088,1.0088,1.0088,1.0088,1.0088,1.0088,1.0097,1.0093,1.0101,1.0099,1.0104,1.0105,1.0105,1.0104,1.011,1.0112,1.0109,1.0107,1.0109,1.0111,1.011,1.0111,1.0117,1.0114,1.0089,1.0085,1.0082,1.0079,1.0118,1.0118,1.014,1.014,1.0141]}]]